[[{"header":{"parameterUnit":"m.s-1","parameterCategory":1,"la1":30.2991,"la2":30.254,"lo1":-89.0895,"lo2":-89.0444,"dy":0.0017,"dx":0.0017,"nx":28,"ny":28,"refTime":"2024-05-08T09:00:00:Z","depth":0,"parameterNumber":2,"parameterNumberName":"U-component_of_WINDS"},"data":[0,0,0,0,0,0,0,0,0,0,0,0,0,0,0,0,0,0,0,0,0,0,0,0,0,0,0,0,0,0,0,0,0,0,0,0,0,0,0,0,0,0,0,0,0,0,0,0,0,0,0,0,0,0,0,0,0,0,-1.2281,-1.228,0,-1.2223,-1.2222,-1.2222,-1.2193,-1.2193,-1.2193,-1.2193,-1.2132,-1.2131,-1.2129,0,0,0,0,0,0,0,0,0,0,0,0,0,-1.2365,-1.2364,-1.2281,-1.228,-1.228,-1.2223,-1.2222,-1.2222,-1.2193,-1.2193,-1.2193,-1.2193,-1.2133,-1.2131,-1.2129,0,0,0,0,0,0,0,0,0,0,0,0,0,-1.232,-1.2363,-1.2281,-1.2259,-1.2256,-1.2223,-1.2222,-1.2221,-1.2193,-1.2193,-1.2193,-1.2193,-1.2134,-1.2131,-1.2129,-1.2114,0,0,-1.2121,-1.212,0,0,0,0,0,0,0,0,-1.2323,-1.2317,-1.2263,-1.226,-1.2257,-1.2216,-1.223,-1.2185,-1.2193,-1.2217,-1.2193,-1.2193,-1.216,-1.2155,-1.2144,-1.2111,-1.2108,-1.2121,-1.212,-1.2119,-1.2118,0,0,0,0,0,0,0,-1.2326,-1.2319,-1.2258,-1.2262,-1.2259,-1.2251,-1.2245,-1.2221,-1.2189,-1.2215,-1.2213,-1.2206,-1.2158,-1.2147,-1.2143,-1.2107,-1.2121,-1.2119,-1.2118,-1.2117,-1.2057,-1.2057,0,0,0,0,0,0,-1.2333,-1.2322,-1.226,-1.2256,-1.2291,-1.2249,-1.2242,-1.2229,-1.2189,-1.2183,-1.2207,-1.2205,-1.2151,-1.2146,-1.2141,-1.2119,-1.2119,-1.2116,-1.2115,-1.2057,-1.2057,-1.2057,0,0,0,0,0,0,-1.2335,-1.2328,-1.2262,-1.2289,-1.228,-1.2248,-1.2233,-1.2228,-1.2216,-1.2183,-1.2177,-1.2201,-1.2151,-1.2144,-1.212,-1.2117,-1.2115,-1.2113,-1.2057,-1.2057,-1.2057,-1.2078,0,0,0,0,0,0,-1.2337,-1.2329,-1.2323,-1.2289,-1.2278,-1.2244,-1.2233,-1.2227,-1.2212,-1.221,-1.2176,-1.217,-1.215,-1.2124,-1.2118,-1.2114,-1.2111,-1.2058,-1.2057,-1.2057,-1.2077,-1.2078,-1.2079,0,0,0,0,0,-1.2341,-1.2331,-1.2323,-1.2315,-1.2271,-1.2244,-1.2238,-1.2216,-1.2212,-1.2206,-1.2184,-1.2171,-1.2119,-1.2122,-1.2115,-1.211,-1.2058,-1.2057,-1.2057,-1.2077,-1.2078,-1.2079,0,0,0,0,0,0,-1.2365,-1.2326,-1.2317,-1.2296,-1.2273,-1.2239,-1.223,-1.2218,-1.2195,-1.2194,-1.2167,-1.216,-1.2139,-1.2122,-1.2126,-1.2092,-1.2087,-1.2085,-1.2104,-1.2105,-1.2106,-1.211,-1.2109,0,0,0,0,0,-1.2368,-1.235,-1.2316,-1.2301,-1.229,-1.2262,-1.225,-1.2235,-1.221,-1.22,-1.2177,-1.2153,-1.2131,-1.2117,-1.2095,-1.2075,-1.2066,-1.2068,-1.2069,-1.207,-1.2068,-1.2056,-1.2056,-1.2056,-1.2056,-1.2056,0,0,-1.2374,-1.235,-1.234,-1.2305,-1.2286,-1.2267,-1.2255,-1.2235,-1.2221,-1.2197,-1.2173,-1.2156,-1.2127,-1.2105,-1.2094,-1.209,-1.2066,-1.2069,-1.207,-1.2068,-1.2055,-1.2055,-1.2055,-1.2056,-1.2056,-1.2056,0,0,-1.2375,-1.2356,-1.234,-1.2321,-1.2293,-1.2274,-1.227,-1.2238,-1.2225,-1.2201,-1.2183,-1.2165,-1.2128,-1.2108,-1.2094,-1.2087,-1.2074,-1.208,-1.2085,-1.2073,-1.2073,-1.2073,-1.207,-1.207,-1.2079,-1.2079,-1.2079,0,-1.2386,-1.2357,-1.2334,-1.2315,-1.23,-1.2279,-1.2263,-1.2245,-1.2211,-1.22,-1.2197,-1.215,-1.2129,-1.2102,-1.21,-1.2089,-1.2083,-1.2084,-1.2075,-1.2075,-1.2074,-1.2071,-1.207,-1.208,-1.208,-1.208,-1.208,0,-1.2371,-1.2351,-1.2343,-1.231,-1.2294,-1.2277,-1.2251,-1.2237,-1.2223,-1.2205,-1.218,-1.2155,-1.2127,-1.212,-1.2106,-1.209,-1.2089,-1.2081,-1.2074,-1.2076,-1.2072,-1.2071,-1.2082,-1.2081,-1.2081,-1.2081,0,0,-1.2386,-1.2341,-1.2338,-1.2323,-1.2289,-1.2273,-1.2255,-1.2228,-1.2217,-1.2193,-1.2177,-1.2146,-1.2138,-1.2121,-1.2105,-1.2095,-1.209,-1.2088,-1.2087,-1.2089,-1.2071,-1.2077,-1.2076,-1.2082,-1.2081,-1.2081,-1.2073,0,-1.2382,-1.2348,-1.2327,-1.2302,-1.2283,-1.2262,-1.2246,-1.2223,-1.2205,-1.2186,-1.2166,-1.2145,-1.2137,-1.2126,-1.2115,-1.2093,-1.2086,-1.2094,-1.2065,-1.2065,-1.2073,-1.2074,-1.208,-1.2074,-1.2072,-1.2071,-1.2071,0,-1.2373,-1.235,-1.2323,-1.2291,-1.2283,-1.2269,-1.2242,-1.2224,-1.2198,-1.2186,-1.2167,-1.2151,-1.213,-1.2126,-1.2096,-1.2102,-1.2089,-1.2076,-1.2076,-1.2072,-1.2068,-1.207,-1.2071,-1.207,-1.2069,-1.2069,-1.2069,0,-1.2385,-1.2348,-1.2327,-1.2315,-1.2277,-1.2268,-1.2252,-1.2226,-1.2211,-1.2187,-1.2177,-1.2152,-1.2138,-1.2118,-1.2095,-1.2094,-1.2068,-1.2062,-1.2057,-1.2057,-1.2052,-1.2052,-1.2051,-1.2044,-1.2044,-1.2044,-1.2044,0,-1.2383,-1.2367,-1.2332,-1.2319,-1.2301,-1.2276,-1.2258,-1.2241,-1.2217,-1.22,-1.218,-1.2164,-1.2135,-1.2116,-1.2097,-1.2075,-1.2069,-1.2058,-1.2054,-1.206,-1.2061,-1.2051,-1.205,-1.2044,-1.2044,-1.2044,-1.2044,0,-1.2394,-1.237,-1.2346,-1.2312,-1.2303,-1.2291,-1.2262,-1.2248,-1.223,-1.2208,-1.2202,-1.2172,-1.2148,-1.2123,-1.209,-1.2078,-1.2056,-1.205,-1.2065,-1.2063,-1.2059,-1.2059,-1.205,-1.2047,-1.2043,-1.2043,-1.2043,0,-1.2394,-1.2381,-1.2346,-1.2333,-1.2318,-1.2297,-1.2282,-1.2257,-1.2242,-1.2211,-1.2201,-1.2175,-1.2153,-1.2116,-1.2091,-1.2066,-1.2058,-1.2057,-1.2054,-1.2061,-1.2058,-1.2059,-1.2057,-1.2058,-1.2058,-1.2058,-1.2058,0,-1.2395,-1.2384,-1.2363,-1.2338,-1.232,-1.2299,-1.2277,-1.2268,-1.2238,-1.2222,-1.2198,-1.2181,-1.2147,-1.2122,-1.2094,-1.2076,-1.2062,-1.2059,-1.2057,-1.2063,-1.2072,-1.2066,-1.2067,-1.2059,-1.2059,-1.2059,-1.2059,-1.2059,-1.24,-1.2388,-1.2361,-1.2338,-1.2319,-1.2299,-1.2284,-1.2264,-1.2243,-1.2214,-1.2201,-1.2176,-1.2149,-1.211,-1.2093,-1.2073,-1.2069,-1.2065,-1.2064,-1.2063,-1.2065,-1.2076,-1.2067,-1.2067,-1.2067,-1.2067,-1.2067,0,-1.2401,-1.2382,-1.2362,-1.2331,-1.2313,-1.2302,-1.2277,-1.2262,-1.2241,-1.2218,-1.2197,-1.2168,-1.2143,-1.2117,-1.209,-1.2079,-1.2072,-1.2073,-1.2073,-1.2069,-1.207,-1.2075,-1.2079,-1.2079,-1.2079,-1.2079,-1.2079,-1.2079,-1.2399,-1.2377,-1.2362,-1.2331,-1.2312,-1.2288,-1.2275,-1.2256,-1.2237,-1.2206,-1.2186,-1.2169,-1.2144,-1.2115,-1.2092,-1.2085,-1.2076,-1.2079,-1.207,-1.207,-1.2069,-1.2069,-1.2073,-1.2077,-1.2077,-1.2071,-1.2071,-1.2071]},{"header":{"parameterUnit":"m.s-1","parameterCategory":1,"la1":30.2991,"la2":30.254,"lo1":-89.0895,"lo2":-89.0444,"dy":0.0017,"dx":0.0017,"nx":28,"ny":28,"refTime":"2024-05-08T09:00:00:Z","depth":0,"parameterNumber":3,"parameterNumberName":"V-component_of_WINDS"},"data":[0,0,0,0,0,0,0,0,0,0,0,0,0,0,0,0,0,0,0,0,0,0,0,0,0,0,0,0,0,0,0,0,0,0,0,0,0,0,0,0,0,0,0,0,0,0,0,0,0,0,0,0,0,0,0,0,0,0,5.326,5.3261,0,5.3354,5.3355,5.3356,5.3379,5.3378,5.3378,5.3377,5.3466,5.3469,5.3472,0,0,0,0,0,0,0,0,0,0,0,0,0,5.3098,5.3101,5.326,5.3261,5.3263,5.3353,5.3355,5.3356,5.3379,5.3378,5.3378,5.3377,5.3465,5.3469,5.3472,0,0,0,0,0,0,0,0,0,0,0,0,0,5.3178,5.3102,5.326,5.3285,5.3288,5.3353,5.3355,5.3356,5.3379,5.3378,5.3378,5.3377,5.3464,5.3469,5.3473,5.3517,0,0,5.3486,5.3488,0,0,0,0,0,0,0,0,5.3173,5.3183,5.328,5.3284,5.3287,5.3354,5.333,5.341,5.3379,5.3345,5.3377,5.3376,5.3429,5.3436,5.3456,5.3521,5.3525,5.3487,5.3489,5.3491,5.3492,0,0,0,0,0,0,0,5.3168,5.318,5.3297,5.3282,5.3286,5.3291,5.3301,5.3346,5.339,5.3347,5.3349,5.3361,5.3431,5.3451,5.3458,5.3526,5.3486,5.349,5.3493,5.3495,5.3637,5.3638,0,0,0,0,0,0,5.3158,5.3175,5.3294,5.33,5.3227,5.3294,5.3306,5.3333,5.339,5.3398,5.3361,5.3361,5.3444,5.3453,5.3461,5.3519,5.3491,5.3495,5.3498,5.3636,5.3637,5.3639,0,0,0,0,0,0,5.3155,5.3169,5.329,5.3238,5.3254,5.3298,5.3329,5.3336,5.3356,5.3401,5.3408,5.3374,5.3444,5.3455,5.3504,5.3523,5.3497,5.3501,5.3634,5.3636,5.3638,5.3634,0,0,0,0,0,0,5.315,5.3167,5.3185,5.3238,5.3257,5.3333,5.333,5.3338,5.3364,5.3365,5.3415,5.3422,5.3444,5.3498,5.3509,5.3528,5.3504,5.3633,5.3635,5.3637,5.3633,5.3636,5.3638,0,0,0,0,0,5.3144,5.3178,5.3186,5.32,5.328,5.3334,5.3344,5.3371,5.3366,5.3384,5.3413,5.342,5.3519,5.3503,5.3515,5.3536,5.3632,5.3635,5.3637,5.3632,5.3635,5.3638,0,0,0,0,0,0,5.3122,5.3185,5.3195,5.3247,5.3286,5.3338,5.3361,5.3373,5.3412,5.3411,5.344,5.3451,5.3499,5.3522,5.3503,5.3584,5.3575,5.3581,5.3567,5.357,5.3573,5.3566,5.3508,0,0,0,0,0,5.3124,5.3165,5.3217,5.3258,5.3277,5.3316,5.334,5.3358,5.3398,5.3413,5.3446,5.3483,5.3523,5.3548,5.3586,5.3637,5.3649,5.3658,5.366,5.3662,5.3666,5.3697,5.3702,5.3647,5.3647,5.3647,0,0,5.3127,5.3167,5.319,5.3255,5.3286,5.3327,5.3329,5.337,5.3401,5.3419,5.3469,5.3494,5.3538,5.3589,5.3613,5.3609,5.3684,5.3665,5.3666,5.367,5.37,5.3706,5.371,5.3649,5.3649,5.3648,0,0,5.3154,5.3188,5.3227,5.326,5.331,5.3336,5.3346,5.3398,5.3416,5.3468,5.3484,5.3519,5.3586,5.3617,5.3642,5.3685,5.3694,5.3697,5.371,5.374,5.3744,5.3748,5.3765,5.3771,5.3701,5.3701,5.3701,0,5.3151,5.3214,5.3245,5.3288,5.3317,5.3339,5.338,5.3409,5.3468,5.3487,5.3483,5.3571,5.3601,5.3661,5.3672,5.3691,5.3703,5.3691,5.3741,5.3746,5.375,5.3767,5.3773,5.3701,5.3701,5.3701,5.3701,0,5.3209,5.3252,5.3278,5.3339,5.337,5.3411,5.3448,5.3476,5.3493,5.3519,5.3572,5.3611,5.3659,5.3674,5.3689,5.3738,5.3735,5.3736,5.3728,5.3755,5.3771,5.3778,5.3701,5.3701,5.3701,5.3701,0,0,5.3221,5.3302,5.3311,5.334,5.3399,5.3432,5.3475,5.3525,5.355,5.359,5.3627,5.3686,5.3689,5.3717,5.3735,5.3761,5.3796,5.376,5.3761,5.3767,5.3855,5.3854,5.3861,5.3803,5.3804,5.3805,5.3852,0,5.3256,5.3336,5.3368,5.3432,5.3474,5.3497,5.3535,5.3574,5.3601,5.364,5.3669,5.3711,5.371,5.3728,5.3755,5.3786,5.3815,5.3783,5.3837,5.3839,5.3827,5.3869,5.3868,5.3909,5.3858,5.3859,5.386,0,5.3307,5.3352,5.3422,5.3479,5.3497,5.3531,5.3581,5.3618,5.3664,5.3682,5.3716,5.3734,5.378,5.377,5.3834,5.3812,5.3836,5.3855,5.3857,5.3863,5.3851,5.3877,5.3923,5.393,5.387,5.3869,5.3868,0,5.3311,5.3389,5.3442,5.3466,5.3533,5.3556,5.3585,5.363,5.366,5.3704,5.3724,5.3771,5.3797,5.3833,5.3864,5.3853,5.3926,5.3917,5.3942,5.3941,5.3955,5.3954,5.4007,5.397,5.397,5.397,5.397,0,5.3347,5.3389,5.3446,5.3478,5.3526,5.3562,5.3608,5.3638,5.368,5.3718,5.374,5.3775,5.3814,5.3854,5.3878,5.3929,5.3939,5.3955,5.3961,5.3954,5.3952,5.397,5.3968,5.3971,5.3971,5.3971,5.397,0,5.336,5.3399,5.3459,5.3519,5.3536,5.3569,5.362,5.3652,5.3682,5.373,5.3744,5.3789,5.3838,5.3873,5.3935,5.3951,5.4006,5.4011,5.3992,5.3995,5.4018,5.4016,5.4084,5.4096,5.405,5.4051,5.4051,0,5.338,5.3414,5.3479,5.3508,5.3538,5.3584,5.3615,5.3653,5.3684,5.3742,5.3768,5.3819,5.3862,5.3939,5.3977,5.4025,5.4032,5.4053,5.4039,5.4032,5.4034,5.4032,5.4037,5.4055,5.4055,5.4055,5.4056,0,5.3413,5.3432,5.3478,5.3532,5.357,5.3614,5.3657,5.3679,5.3724,5.3759,5.3811,5.3845,5.3911,5.3962,5.4015,5.4043,5.4057,5.406,5.4069,5.4061,5.4049,5.4058,5.3998,5.4058,5.4058,5.4058,5.4057,5.4057,5.3431,5.3463,5.3516,5.3567,5.3605,5.3646,5.3681,5.3717,5.3762,5.382,5.3839,5.3894,5.3942,5.4015,5.4045,5.4087,5.4086,5.4098,5.4101,5.4103,5.4104,5.4043,5.4097,5.4097,5.4097,5.4097,5.4097,0,5.3466,5.3502,5.3549,5.3612,5.3653,5.3666,5.3716,5.3749,5.3798,5.3842,5.3886,5.3947,5.3998,5.4042,5.4094,5.412,5.4128,5.4133,5.4131,5.4138,5.4101,5.409,5.4126,5.4126,5.4126,5.4126,5.4126,5.4126,5.3489,5.3545,5.3571,5.3647,5.3683,5.3739,5.3767,5.3805,5.3842,5.391,5.3954,5.3983,5.4028,5.4085,5.4132,5.4144,5.4162,5.4166,5.4179,5.4143,5.414,5.4137,5.4126,5.4169,5.4169,5.4212,5.4212,5.4213]}]]